This is the latest recevied weather packets stored in our database for station/object HUGOCO. If no packets are shown the sender has not sent any weather packets the latest 10 day(s).
| Time | Temp. | Humidity | Pressure | Rain* | Wind** | Luminosity | Snow |
|---|---|---|---|---|---|---|---|
| 1777913162 | 21.67° C | 14% | 1004.1 hPa | 0 mm | - | - | - |
| 1777912862 | 21.67° C | 14% | 1004 hPa | 0 mm | - | - | - |
| 1777912562 | 21.11° C | 16% | 1004 hPa | 0 mm | - | - | - |
| 1777912262 | 21.11° C | 17% | 1004.1 hPa | 0 mm | - | - | - |
| 1777911962 | 21.11° C | 17% | 1004.1 hPa | 0 mm | - | - | - |
| 1777911662 | 21.67° C | 17% | 1004.1 hPa | 0 mm | - | - | - |
| 1777911362 | 21.11° C | 18% | 1004 hPa | 0 mm | - | - | - |
| 1777911062 | 21.11° C | 17% | 1004 hPa | 0 mm | - | - | - |
| 1777910762 | 21.11° C | 16% | 1004 hPa | 0 mm | - | - | - |
| 1777910462 | 21.11° C | 19% | 1004 hPa | 0 mm | - | - | - |
| 1777910162 | 20.56° C | 20% | 1004 hPa | 0 mm | - | - | - |
| 1777909862 | 20.56° C | 19% | 1004 hPa | 0 mm | - | - | - |
| 1777909562 | 20.56° C | 19% | 1004 hPa | 0 mm | - | - | - |
| 1777909262 | 20.56° C | 20% | 1004.2 hPa | 0 mm | - | - | - |
| 1777908962 | 20.56° C | 24% | 1004.2 hPa | 0 mm | - | - | - |
| 1777908662 | 20° C | 25% | 1004.1 hPa | 0 mm | - | - | - |
| 1777908362 | 20° C | 26% | 1004.2 hPa | 0 mm | - | - | - |
| 1777908062 | 19.44° C | 27% | 1004.2 hPa | 0 mm | - | - | - |
| 1777907762 | 19.44° C | 28% | 1004.3 hPa | 0 mm | - | - | - |
| 1777907462 | 18.89° C | 29% | 1004.2 hPa | 0 mm | - | - | - |
| 1777907162 | 18.89° C | 30% | 1004.4 hPa | 0 mm | - | - | - |
| 1777906862 | 18.33° C | 29% | 1004.6 hPa | 0 mm | - | - | - |
| 1777906562 | 18.33° C | 29% | 1004.5 hPa | 0 mm | - | - | - |
| 1777906262 | 18.33° C | 29% | 1004.6 hPa | 0 mm | - | - | - |
| 1777905962 | 18.33° C | 29% | 1004.6 hPa | 0 mm | - | - | - |
* Rain latest hour (hover to see other rain measurements)
** Current wind speed in m/s (hover to see current wind gust speed)